Time,TemperatureF,DewpointF,PressureIn,WindDirection,WindDirectionDegrees,WindSpeedMPH,WindSpeedGustMPH,Humidity,HourlyPrecipIn,Conditions,Clouds,dailyrainin,SoftwareType,DateUTC
2013-04-27 00:02:00,47.3,23.7,30.25,WSW,258,0.0,0.0,39,0.00,,,0.00,meteohub,2013-04-27 04:02:00,
2013-04-27 00:07:00,47.3,23.7,30.25,WSW,258,0.0,0.0,39,0.00,,,0.00,meteohub,2013-04-27 04:07:00,
2013-04-27 00:17:00,47.1,23.5,30.28,WSW,258,0.0,0.0,39,0.00,,,0.00,meteohub,2013-04-27 04:17:00,
2013-04-27 00:22:00,46.8,23.2,30.28,NE,55,0.0,0.0,39,0.00,,,0.00,meteohub,2013-04-27 04:22:00,
2013-04-27 00:27:00,46.4,23.4,30.25,NE,55,0.0,0.0,40,0.00,,,0.00,meteohub,2013-04-27 04:27:00,
2013-04-27 00:32:00,46.0,23.7,30.25,East,100,0.0,0.0,41,0.00,,,0.00,meteohub,2013-04-27 04:32:00,
2013-04-27 00:37:00,46.0,23.7,30.25,East,100,0.0,0.0,41,0.00,,,0.00,meteohub,2013-04-27 04:37:00,
2013-04-27 00:47:00,45.5,23.2,30.31,East,100,0.0,0.0,41,0.00,,,0.00,meteohub,2013-04-27 04:47:00,
2013-04-27 00:52:00,45.3,23.0,30.31,East,100,0.0,0.0,41,0.00,,,0.00,meteohub,2013-04-27 04:52:00,
2013-04-27 00:57:00,45.1,23.5,30.25,East,100,0.0,0.0,42,0.00,,,0.00,meteohub,2013-04-27 04:57:00,
2013-04-27 01:02:00,45.0,23.4,30.25,South,190,0.0,0.0,42,0.00,,,0.00,meteohub,2013-04-27 05:02:00,
2013-04-27 01:07:00,44.8,23.2,30.25,South,190,0.0,0.0,42,0.00,,,0.00,meteohub,2013-04-27 05:07:00,
2013-04-27 01:12:00,44.6,23.5,30.25,SSW,212,0.0,0.0,43,0.00,,,0.00,meteohub,2013-04-27 05:12:00,
2013-04-27 01:17:00,44.6,23.5,30.28,NNW,348,0.0,0.0,43,0.00,,,0.00,meteohub,2013-04-27 05:17:00,
2013-04-27 01:22:00,44.1,23.5,30.28,NE,55,0.0,0.0,44,0.00,,,0.00,meteohub,2013-04-27 05:22:00,
2013-04-27 01:27:00,44.2,24.3,30.28,NE,55,0.0,0.0,45,0.00,,,0.00,meteohub,2013-04-27 05:27:00,
2013-04-27 01:32:00,44.2,24.3,30.28,NE,55,0.0,0.0,45,0.00,,,0.00,meteohub,2013-04-27 05:32:00,
2013-04-27 01:37:00,44.1,24.6,30.28,NW,325,0.0,0.0,46,0.00,,,0.00,meteohub,2013-04-27 05:37:00,
2013-04-27 01:42:00,43.9,25.0,30.25,NNW,348,0.0,0.0,47,0.00,,,0.00,meteohub,2013-04-27 05:42:00,
2013-04-27 01:47:00,43.7,25.3,30.25,NNW,348,0.0,0.0,48,0.00,,,0.00,meteohub,2013-04-27 05:47:00,
2013-04-27 01:52:00,43.7,25.9,30.25,West,280,0.0,0.0,49,0.00,,,0.00,meteohub,2013-04-27 05:52:00,
2013-04-27 01:57:00,43.9,26.1,30.25,West,280,0.0,0.0,49,0.00,,,0.00,meteohub,2013-04-27 05:57:00,
2013-04-27 02:02:00,43.7,26.2,30.25,West,280,0.0,0.0,50,0.00,,,0.00,meteohub,2013-04-27 06:02:00,
2013-04-27 02:07:00,43.5,26.2,30.25,NNE,32,0.0,0.0,50,0.00,,,0.00,meteohub,2013-04-27 06:07:00,
2013-04-27 02:12:00,43.5,26.2,30.28,NNE,32,0.0,0.0,50,0.00,,,0.00,meteohub,2013-04-27 06:12:00,
2013-04-27 02:17:00,43.3,26.1,30.28,WNW,302,0.0,0.0,50,0.00,,,0.00,meteohub,2013-04-27 06:17:00,
2013-04-27 02:22:00,43.5,26.6,30.28,WNW,302,0.0,0.0,51,0.00,,,0.00,meteohub,2013-04-27 06:22:00,
2013-04-27 02:27:00,43.5,26.6,30.28,NNW,348,4.0,0.0,51,0.00,,,0.00,meteohub,2013-04-27 06:27:00,
2013-04-27 02:32:00,43.3,26.4,30.28,NNW,348,0.0,4.0,51,0.00,,,0.00,meteohub,2013-04-27 06:32:00,
2013-04-27 02:37:00,43.2,26.2,30.28,NNW,348,0.0,4.0,51,0.00,,,0.00,meteohub,2013-04-27 06:37:00,
2013-04-27 02:42:00,43.3,26.4,30.28,NNW,348,0.0,4.0,51,0.00,,,0.00,meteohub,2013-04-27 06:42:00,
2013-04-27 02:47:00,43.2,26.2,30.28,North,10,0.0,3.0,51,0.00,,,0.00,meteohub,2013-04-27 06:47:00,
2013-04-27 02:52:00,43.3,26.4,30.28,North,10,0.0,0.0,51,0.00,,,0.00,meteohub,2013-04-27 06:52:00,
2013-04-27 02:57:00,43.3,26.4,30.28,North,10,0.0,2.0,51,0.00,,,0.00,meteohub,2013-04-27 06:57:00,
2013-04-27 03:02:00,43.2,26.8,30.28,North,10,0.0,2.0,52,0.00,,,0.00,meteohub,2013-04-27 07:02:00,
2013-04-27 03:07:00,43.2,26.2,30.28,NW,325,3.0,3.0,51,0.00,,,0.00,meteohub,2013-04-27 07:07:00,
2013-04-27 03:12:00,43.0,26.6,30.25,NW,325,0.0,3.0,52,0.00,,,0.00,meteohub,2013-04-27 07:12:00,
2013-04-27 03:17:00,43.0,26.6,30.25,WNW,302,0.0,3.0,52,0.00,,,0.00,meteohub,2013-04-27 07:17:00,
2013-04-27 03:22:00,43.0,26.6,30.25,WNW,302,0.0,3.0,52,0.00,,,0.00,meteohub,2013-04-27 07:22:00,
2013-04-27 03:27:00,43.0,26.6,30.28,North,10,0.0,0.0,52,0.00,,,0.00,meteohub,2013-04-27 07:27:00,
2013-04-27 03:32:00,43.0,26.6,30.28,SE,145,0.0,0.0,52,0.00,,,0.00,meteohub,2013-04-27 07:32:00,
2013-04-27 03:37:00,43.0,26.6,30.28,WSW,258,0.0,0.0,52,0.00,,,0.00,meteohub,2013-04-27 07:37:00,
2013-04-27 03:42:00,43.0,26.1,30.25,WSW,258,0.0,0.0,51,0.00,,,0.00,meteohub,2013-04-27 07:42:00,
2013-04-27 03:47:00,42.8,26.4,30.25,NNW,348,0.0,4.0,52,0.00,,,0.00,meteohub,2013-04-27 07:47:00,
2013-04-27 03:52:00,42.8,26.4,30.25,NE,55,0.0,4.0,52,0.00,,,0.00,meteohub,2013-04-27 07:52:00,
2013-04-27 03:57:00,42.8,27.0,30.28,NNW,348,2.0,4.0,53,0.00,,,0.00,meteohub,2013-04-27 07:57:00,
2013-04-27 04:02:00,42.8,27.0,30.28,NNW,348,0.0,3.0,53,0.00,,,0.00,meteohub,2013-04-27 08:02:00,
2013-04-27 04:07:00,42.4,26.6,30.28,NE,55,0.0,3.0,53,0.00,,,0.00,meteohub,2013-04-27 08:07:00,
2013-04-27 04:12:00,42.8,27.0,30.28,NE,55,0.0,3.0,53,0.00,,,0.00,meteohub,2013-04-27 08:12:00,
2013-04-27 04:17:00,43.0,27.1,30.28,NNW,348,0.0,0.0,53,0.00,,,0.00,meteohub,2013-04-27 08:17:00,
2013-04-27 04:22:00,42.8,26.4,30.28,North,10,0.0,0.0,52,0.00,,,0.00,meteohub,2013-04-27 08:22:00,
2013-04-27 04:27:00,42.6,26.8,30.28,NNW,348,0.0,0.0,53,0.00,,,0.00,meteohub,2013-04-27 08:27:00,
2013-04-27 04:32:00,42.6,26.8,30.28,NNW,348,0.0,0.0,53,0.00,,,0.00,meteohub,2013-04-27 08:32:00,
2013-04-27 04:37:00,42.8,27.0,30.28,NNW,348,0.0,0.0,53,0.00,,,0.00,meteohub,2013-04-27 08:37:00,
2013-04-27 04:42:00,42.8,27.0,30.25,NNW,348,0.0,0.0,53,0.00,,,0.00,meteohub,2013-04-27 08:42:00,
2013-04-27 04:47:00,42.6,27.1,30.25,NNW,348,0.0,3.0,54,0.00,,,0.00,meteohub,2013-04-27 08:47:00,
2013-04-27 04:52:00,42.4,27.0,30.25,North,10,0.0,3.0,54,0.00,,,0.00,meteohub,2013-04-27 08:52:00,
2013-04-27 04:57:00,42.4,27.5,30.25,NNE,32,0.0,3.0,55,0.00,,,0.00,meteohub,2013-04-27 08:57:00,
2013-04-27 05:02:00,42.4,27.5,30.25,South,190,3.0,3.0,55,0.00,,,0.00,meteohub,2013-04-27 09:02:00,
2013-04-27 05:07:00,42.6,27.7,30.25,SSE,168,3.0,4.0,55,0.00,,,0.00,meteohub,2013-04-27 09:07:00,
2013-04-27 05:12:00,42.4,27.5,30.25,SW,235,0.0,4.0,55,0.00,,,0.00,meteohub,2013-04-27 09:12:00,
2013-04-27 05:17:00,42.4,27.0,30.25,SW,235,0.0,4.0,54,0.00,,,0.00,meteohub,2013-04-27 09:17:00,
2013-04-27 05:22:00,42.4,27.0,30.25,South,190,0.0,3.0,54,0.00,,,0.00,meteohub,2013-04-27 09:22:00,
2013-04-27 05:27:00,42.4,27.0,30.28,North,10,0.0,0.0,54,0.00,,,0.00,meteohub,2013-04-27 09:27:00,
2013-04-27 05:42:00,42.3,26.8,30.25,ENE,78,0.0,0.0,54,0.00,,,0.00,meteohub,2013-04-27 09:42:00,
2013-04-27 05:47:00,42.3,26.8,30.25,ENE,78,0.0,0.0,54,0.00,,,0.00,meteohub,2013-04-27 09:47:00,
2013-04-27 05:52:00,42.1,26.6,30.25,ENE,78,0.0,0.0,54,0.00,,,0.00,meteohub,2013-04-27 09:52:00,
2013-04-27 05:57:00,42.1,26.6,30.28,ENE,78,0.0,0.0,54,0.00,,,0.00,meteohub,2013-04-27 09:57:00,
2013-04-27 06:02:00,42.1,26.2,30.28,ENE,78,0.0,0.0,53,0.00,,,0.00,meteohub,2013-04-27 10:02:00,
2013-04-27 06:07:00,41.7,25.9,30.28,ENE,78,0.0,0.0,53,0.00,,,0.00,meteohub,2013-04-27 10:07:00,
2013-04-27 06:12:00,41.5,25.7,30.25,East,100,0.0,0.0,53,0.00,,,0.00,meteohub,2013-04-27 10:12:00,
2013-04-27 06:17:00,41.5,25.7,30.25,SSW,212,0.0,0.0,53,0.00,,,0.00,meteohub,2013-04-27 10:17:00,
2013-04-27 06:22:00,41.5,25.7,30.25,SE,145,0.0,0.0,53,0.00,,,0.00,meteohub,2013-04-27 10:22:00,
2013-04-27 06:27:00,41.2,25.3,30.28,South,190,0.0,0.0,53,0.00,,,0.00,meteohub,2013-04-27 10:27:00,
2013-04-27 06:32:00,41.2,25.9,30.28,SE,145,0.0,0.0,54,0.00,,,0.00,meteohub,2013-04-27 10:32:00,
2013-04-27 06:37:00,41.0,25.7,30.28,SE,145,0.0,0.0,54,0.00,,,0.00,meteohub,2013-04-27 10:37:00,
2013-04-27 06:42:00,41.0,25.7,30.28,SE,145,0.0,0.0,54,0.00,,,0.00,meteohub,2013-04-27 10:42:00,
2013-04-27 06:47:00,41.0,25.7,30.28,SSW,212,0.0,0.0,54,0.00,,,0.00,meteohub,2013-04-27 10:47:00,
2013-04-27 06:52:00,41.0,25.7,30.28,SSE,168,0.0,0.0,54,0.00,,,0.00,meteohub,2013-04-27 10:52:00,
2013-04-27 06:57:00,41.2,26.2,30.28,SSE,168,0.0,0.0,55,0.00,,,0.00,meteohub,2013-04-27 10:57:00,
2013-04-27 07:02:00,41.2,26.2,30.28,SSE,168,0.0,0.0,55,0.00,,,0.00,meteohub,2013-04-27 11:02:00,
2013-04-27 07:07:00,41.0,26.6,30.28,NNW,348,0.0,3.0,56,0.00,,,0.00,meteohub,2013-04-27 11:07:00,
2013-04-27 07:12:00,41.0,26.6,30.28,NNW,348,0.0,3.0,56,0.00,,,0.00,meteohub,2013-04-27 11:12:00,
2013-04-27 07:17:00,41.0,27.0,30.28,NNW,348,0.0,3.0,57,0.00,,,0.00,meteohub,2013-04-27 11:17:00,
2013-04-27 07:22:00,41.0,27.0,30.28,NNW,348,0.0,2.0,57,0.00,,,0.00,meteohub,2013-04-27 11:22:00,
2013-04-27 07:27:00,41.0,27.3,30.28,NNW,348,0.0,0.0,58,0.00,,,0.00,meteohub,2013-04-27 11:27:00,
2013-04-27 07:32:00,41.2,27.5,30.28,NNW,348,0.0,0.0,58,0.00,,,0.00,meteohub,2013-04-27 11:32:00,
2013-04-27 07:37:00,41.2,27.5,30.28,NNW,348,0.0,0.0,58,0.00,,,0.00,meteohub,2013-04-27 11:37:00,
2013-04-27 07:42:00,41.4,28.2,30.28,NNW,348,0.0,0.0,59,0.00,,,0.00,meteohub,2013-04-27 11:42:00,
2013-04-27 07:47:00,41.5,28.8,30.28,NNW,348,0.0,0.0,60,0.00,,,0.00,meteohub,2013-04-27 11:47:00,
2013-04-27 07:52:00,41.5,28.4,30.28,NNW,348,3.0,0.0,59,0.00,,,0.00,meteohub,2013-04-27 11:52:00,
2013-04-27 07:57:00,41.5,27.9,30.28,North,10,2.0,4.0,58,0.00,,,0.00,meteohub,2013-04-27 11:57:00,
2013-04-27 08:02:00,41.5,27.9,30.28,NNW,348,5.0,5.0,58,0.00,,,0.00,meteohub,2013-04-27 12:02:00,
2013-04-27 08:07:00,41.7,28.0,30.28,North,10,2.0,5.0,58,0.00,,,0.00,meteohub,2013-04-27 12:07:00,
2013-04-27 08:12:00,42.3,28.6,30.28,SE,145,0.0,5.0,58,0.00,,,0.00,meteohub,2013-04-27 12:12:00,
2013-04-27 08:17:00,42.4,28.8,30.28,SSW,212,0.0,5.0,58,0.00,,,0.00,meteohub,2013-04-27 12:17:00,
2013-04-27 08:22:00,43.0,28.8,30.28,South,190,0.0,3.0,57,0.00,,,0.00,meteohub,2013-04-27 12:22:00,
2013-04-27 08:27:00,43.2,28.9,30.28,SW,235,0.0,0.0,57,0.00,,,0.00,meteohub,2013-04-27 12:27:00,
2013-04-27 08:32:00,43.5,28.9,30.28,NNW,348,3.0,0.0,56,0.00,,,0.00,meteohub,2013-04-27 12:32:00,
2013-04-27 08:37:00,43.9,29.3,30.28,North,10,0.0,3.0,56,0.00,,,0.00,meteohub,2013-04-27 12:37:00,
2013-04-27 08:42:00,44.1,29.5,30.28,North,10,3.0,3.0,56,0.00,,,0.00,meteohub,2013-04-27 12:42:00,
2013-04-27 08:47:00,44.8,29.7,30.28,NNE,32,3.0,5.0,55,0.00,,,0.00,meteohub,2013-04-27 12:47:00,
2013-04-27 08:52:00,45.5,30.4,30.28,NNW,348,3.0,5.0,55,0.00,,,0.00,meteohub,2013-04-27 12:52:00,
2013-04-27 08:57:00,45.9,30.2,30.28,NNW,348,5.0,5.0,54,0.00,,,0.00,meteohub,2013-04-27 12:57:00,
2013-04-27 09:02:00,46.6,30.4,30.28,NNW,348,3.0,6.0,53,0.00,,,0.00,meteohub,2013-04-27 13:02:00,
2013-04-27 09:07:00,47.1,30.9,30.28,NNW,348,3.0,6.0,53,0.00,,,0.00,meteohub,2013-04-27 13:07:00,
2013-04-27 09:12:00,47.7,30.9,30.28,WNW,302,5.0,6.0,52,0.00,,,0.00,meteohub,2013-04-27 13:12:00,
2013-04-27 09:17:00,48.2,30.9,30.28,North,10,4.0,6.0,51,0.00,,,0.00,meteohub,2013-04-27 13:17:00,
2013-04-27 09:22:00,48.9,32.2,30.28,NNW,348,5.0,5.0,52,0.00,,,0.00,meteohub,2013-04-27 13:22:00,
2013-04-27 09:27:00,49.6,31.8,30.28,NNW,348,6.0,6.0,50,0.00,,,0.00,meteohub,2013-04-27 13:27:00,
2013-04-27 09:32:00,50.5,31.6,30.28,NNW,348,5.0,6.0,48,0.00,,,0.00,meteohub,2013-04-27 13:32:00,
2013-04-27 09:37:00,51.3,31.8,30.28,WNW,302,5.0,7.0,47,0.00,,,0.00,meteohub,2013-04-27 13:37:00,
2013-04-27 09:42:00,52.0,32.4,30.25,NW,325,6.0,7.0,47,0.00,,,0.00,meteohub,2013-04-27 13:42:00,
2013-04-27 09:52:00,53.2,32.0,30.25,North,10,3.0,8.0,44,0.00,,,0.00,meteohub,2013-04-27 13:52:00,
2013-04-27 09:57:00,53.8,31.8,30.25,NNW,348,3.0,8.0,43,0.00,,,0.00,meteohub,2013-04-27 13:57:00,
2013-04-27 10:02:00,54.5,32.0,30.25,NNW,348,6.0,8.0,42,0.00,,,0.00,meteohub,2013-04-27 14:02:00,
2013-04-27 10:07:00,54.7,32.7,30.25,North,10,6.0,9.0,43,0.00,,,0.00,meteohub,2013-04-27 14:07:00,
2013-04-27 10:12:00,55.9,33.3,30.25,NW,325,7.0,9.0,42,0.00,,,0.00,meteohub,2013-04-27 14:12:00,
2013-04-27 10:17:00,56.1,32.7,30.25,North,10,6.0,8.0,41,0.00,,,0.00,meteohub,2013-04-27 14:17:00,
2013-04-27 10:22:00,56.7,33.3,30.25,NNE,32,7.0,8.0,41,0.00,,,0.00,meteohub,2013-04-27 14:22:00,
2013-04-27 10:27:00,57.0,32.9,30.25,NNE,32,7.0,8.0,40,0.00,,,0.00,meteohub,2013-04-27 14:27:00,
2013-04-27 10:32:00,57.7,32.4,30.25,North,10,7.0,8.0,38,0.00,,,0.00,meteohub,2013-04-27 14:32:00,
2013-04-27 10:37:00,58.5,33.6,30.25,NNW,348,6.0,9.0,39,0.00,,,0.00,meteohub,2013-04-27 14:37:00,
2013-04-27 10:42:00,58.8,33.3,30.22,NNE,32,8.0,10.0,38,0.00,,,0.00,meteohub,2013-04-27 14:42:00,
2013-04-27 10:47:00,59.5,34.0,30.22,NNW,348,3.0,10.0,38,0.00,,,0.00,meteohub,2013-04-27 14:47:00,
2013-04-27 10:52:00,59.9,33.6,30.22,NNW,348,8.0,9.0,37,0.00,,,0.00,meteohub,2013-04-27 14:52:00,
2013-04-27 10:57:00,60.1,33.8,30.22,ESE,122,2.0,13.0,37,0.00,,,0.00,meteohub,2013-04-27 14:57:00,
2013-04-27 11:02:00,60.6,34.2,30.22,NNE,32,9.0,13.0,37,0.00,,,0.00,meteohub,2013-04-27 15:02:00,
2013-04-27 11:07:00,61.2,34.0,30.22,NE,55,5.0,11.0,36,0.00,,,0.00,meteohub,2013-04-27 15:07:00,
2013-04-27 11:12:00,61.3,34.2,30.22,NNE,32,4.0,10.0,36,0.00,,,0.00,meteohub,2013-04-27 15:12:00,
2013-04-27 11:17:00,61.7,33.8,30.22,West,280,0.0,10.0,35,0.00,,,0.00,meteohub,2013-04-27 15:17:00,
2013-04-27 11:22:00,61.9,34.0,30.22,NNW,348,9.0,11.0,35,0.00,,,0.00,meteohub,2013-04-27 15:22:00,
2013-04-27 11:27:00,62.2,34.3,30.22,WNW,302,6.0,13.0,35,0.00,,,0.00,meteohub,2013-04-27 15:27:00,
2013-04-27 11:32:00,62.4,34.5,30.22,NNW,348,7.0,13.0,35,0.00,,,0.00,meteohub,2013-04-27 15:32:00,
2013-04-27 11:37:00,62.8,34.0,30.22,North,10,9.0,13.0,34,0.00,,,0.00,meteohub,2013-04-27 15:37:00,
2013-04-27 11:42:00,63.3,34.5,30.19,WNW,302,13.0,13.0,34,0.00,,,0.00,meteohub,2013-04-27 15:42:00,
2013-04-27 11:47:00,63.5,34.7,30.19,North,10,7.0,13.0,34,0.00,,,0.00,meteohub,2013-04-27 15:47:00,
2013-04-27 11:52:00,64.2,35.2,30.19,NNW,348,8.0,13.0,34,0.00,,,0.00,meteohub,2013-04-27 15:52:00,
2013-04-27 11:57:00,64.0,35.1,30.19,NW,325,3.0,15.0,34,0.00,,,0.00,meteohub,2013-04-27 15:57:00,
2013-04-27 12:02:00,64.4,34.7,30.19,WSW,258,9.0,15.0,33,0.00,,,0.00,meteohub,2013-04-27 16:02:00,
2013-04-27 12:07:00,64.8,35.1,30.19,SSW,212,3.0,15.0,33,0.00,,,0.00,meteohub,2013-04-27 16:07:00,
2013-04-27 12:12:00,65.3,35.4,30.22,NW,325,11.0,11.0,33,0.00,,,0.00,meteohub,2013-04-27 16:12:00,
2013-04-27 12:17:00,64.9,35.2,30.22,WNW,302,7.0,12.0,33,0.00,,,0.00,meteohub,2013-04-27 16:17:00,
2013-04-27 12:22:00,64.9,35.2,30.22,NNW,348,5.0,12.0,33,0.00,,,0.00,meteohub,2013-04-27 16:22:00,
2013-04-27 12:27:00,65.3,35.4,30.22,WSW,258,2.0,12.0,33,0.00,,,0.00,meteohub,2013-04-27 16:27:00,
2013-04-27 12:32:00,66.0,36.1,30.22,NNW,348,11.0,11.0,33,0.00,,,0.00,meteohub,2013-04-27 16:32:00,
2013-04-27 12:37:00,65.5,35.6,30.22,NNW,348,7.0,11.0,33,0.00,,,0.00,meteohub,2013-04-27 16:37:00,
2013-04-27 12:42:00,65.8,36.0,30.22,North,10,9.0,12.0,33,0.00,,,0.00,meteohub,2013-04-27 16:42:00,
2013-04-27 12:47:00,66.2,34.0,30.22,South,190,7.0,12.0,30,0.00,,,0.00,meteohub,2013-04-27 16:47:00,
2013-04-27 12:52:00,66.7,36.0,30.22,NNE,32,5.0,12.0,32,0.00,,,0.00,meteohub,2013-04-27 16:52:00,
2013-04-27 12:57:00,67.3,36.5,30.19,WNW,302,13.0,13.0,32,0.00,,,0.00,meteohub,2013-04-27 16:57:00,
2013-04-27 13:02:00,67.3,34.9,30.19,NNW,348,11.0,13.0,30,0.00,,,0.00,meteohub,2013-04-27 17:02:00,
2013-04-27 13:07:00,67.8,36.1,30.19,SSW,212,7.0,13.0,31,0.00,,,0.00,meteohub,2013-04-27 17:07:00,
2013-04-27 13:12:00,67.5,35.1,30.22,NNW,348,13.0,13.0,30,0.00,,,0.00,meteohub,2013-04-27 17:12:00,
2013-04-27 13:17:00,66.9,33.6,30.22,NNW,348,9.0,17.0,29,0.00,,,0.00,meteohub,2013-04-27 17:17:00,
2013-04-27 13:22:00,66.9,33.6,30.22,NE,55,7.0,19.0,29,0.00,,,0.00,meteohub,2013-04-27 17:22:00,
2013-04-27 13:27:00,66.9,33.6,30.19,South,190,7.0,19.0,29,0.00,,,0.00,meteohub,2013-04-27 17:27:00,
2013-04-27 13:32:00,67.1,34.7,30.19,ESE,122,5.0,19.0,30,0.00,,,0.00,meteohub,2013-04-27 17:32:00,
2013-04-27 13:37:00,66.6,32.5,30.19,SSE,168,2.0,11.0,28,0.00,,,0.00,meteohub,2013-04-27 17:37:00,
2013-04-27 13:42:00,66.7,34.3,30.22,NW,325,6.0,11.0,30,0.00,,,0.00,meteohub,2013-04-27 17:42:00,
2013-04-27 13:47:00,66.4,32.4,30.22,NNW,348,7.0,13.0,28,0.00,,,0.00,meteohub,2013-04-27 17:47:00,
2013-04-27 13:52:00,66.4,33.3,30.22,WNW,302,3.0,13.0,29,0.00,,,0.00,meteohub,2013-04-27 17:52:00,
2013-04-27 13:57:00,66.4,33.3,30.19,WNW,302,8.0,13.0,29,0.00,,,0.00,meteohub,2013-04-27 17:57:00,
2013-04-27 14:02:00,66.2,32.2,30.19,SSW,212,3.0,11.0,28,0.00,,,0.00,meteohub,2013-04-27 18:02:00,
2013-04-27 14:07:00,66.4,33.3,30.19,East,100,2.0,9.0,29,0.00,,,0.00,meteohub,2013-04-27 18:07:00,
2013-04-27 14:12:00,66.0,32.9,30.22,NNW,348,12.0,13.0,29,0.00,,,0.00,meteohub,2013-04-27 18:12:00,
2013-04-27 14:17:00,65.5,33.3,30.22,West,280,5.0,13.0,30,0.00,,,0.00,meteohub,2013-04-27 18:17:00,
2013-04-27 14:22:00,65.5,34.2,30.22,NNW,348,3.0,13.0,31,0.00,,,0.00,meteohub,2013-04-27 18:22:00,
2013-04-27 14:27:00,65.5,34.2,30.22,North,10,5.0,12.0,31,0.00,,,0.00,meteohub,2013-04-27 18:27:00,
2013-04-27 14:32:00,65.3,34.0,30.22,SSE,168,10.0,11.0,31,0.00,,,0.00,meteohub,2013-04-27 18:32:00,
2013-04-27 14:37:00,65.5,33.3,30.22,SSW,212,7.0,26.0,30,0.00,,,0.00,meteohub,2013-04-27 18:37:00,
2013-04-27 14:42:00,65.3,34.0,30.22,SSW,212,9.0,26.0,31,0.00,,,0.00,meteohub,2013-04-27 18:42:00,
2013-04-27 14:47:00,65.5,34.2,30.22,North,10,5.0,16.0,31,0.00,,,0.00,meteohub,2013-04-27 18:47:00,
2013-04-27 14:52:00,65.3,34.0,30.22,NNW,348,6.0,16.0,31,0.00,,,0.00,meteohub,2013-04-27 18:52:00,
2013-04-27 14:57:00,64.9,33.6,30.22,SSW,212,8.0,12.0,31,0.00,,,0.00,meteohub,2013-04-27 18:57:00,
2013-04-27 15:02:00,64.8,33.4,30.22,ESE,122,6.0,13.0,31,0.00,,,0.00,meteohub,2013-04-27 19:02:00,
2013-04-27 15:07:00,64.8,34.3,30.22,SSE,168,5.0,13.0,32,0.00,,,0.00,meteohub,2013-04-27 19:07:00,
2013-04-27 15:12:00,64.8,34.3,30.22,West,280,11.0,12.0,32,0.00,,,0.00,meteohub,2013-04-27 19:12:00,
2013-04-27 15:17:00,64.8,33.4,30.22,SSW,212,8.0,21.0,31,0.00,,,0.00,meteohub,2013-04-27 19:17:00,
2013-04-27 15:22:00,64.9,34.3,30.22,WNW,302,2.0,21.0,32,0.00,,,0.00,meteohub,2013-04-27 19:22:00,
2013-04-27 15:27:00,65.1,34.5,30.19,North,10,3.0,21.0,32,0.00,,,0.00,meteohub,2013-04-27 19:27:00,
2013-04-27 15:32:00,65.3,35.4,30.19,SE,145,11.0,11.0,33,0.00,,,0.00,meteohub,2013-04-27 19:32:00,
2013-04-27 15:37:00,65.5,35.6,30.19,West,280,3.0,11.0,33,0.00,,,0.00,meteohub,2013-04-27 19:37:00,
2013-04-27 15:42:00,65.1,35.4,30.19,NNW,348,10.0,11.0,33,0.00,,,0.00,meteohub,2013-04-27 19:42:00,
2013-04-27 15:47:00,64.9,34.3,30.19,West,280,8.0,12.0,32,0.00,,,0.00,meteohub,2013-04-27 19:47:00,
2013-04-27 15:52:00,64.8,34.3,30.19,SE,145,4.0,12.0,32,0.00,,,0.00,meteohub,2013-04-27 19:52:00,
2013-04-27 15:57:00,64.9,34.3,30.19,West,280,7.0,12.0,32,0.00,,,0.00,meteohub,2013-04-27 19:57:00,
2013-04-27 16:02:00,64.8,33.4,30.19,NW,325,8.0,15.0,31,0.00,,,0.00,meteohub,2013-04-27 20:02:00,
2013-04-27 16:07:00,64.8,34.3,30.19,SW,235,7.0,15.0,32,0.00,,,0.00,meteohub,2013-04-27 20:07:00,
2013-04-27 16:12:00,64.8,33.4,30.19,ENE,78,4.0,13.0,31,0.00,,,0.00,meteohub,2013-04-27 20:12:00,
2013-04-27 16:17:00,64.8,34.3,30.19,NNE,32,6.0,14.0,32,0.00,,,0.00,meteohub,2013-04-27 20:17:00,
2013-04-27 16:22:00,64.8,34.3,30.19,WSW,258,8.0,14.0,32,0.00,,,0.00,meteohub,2013-04-27 20:22:00,
2013-04-27 16:27:00,64.8,34.3,30.19,West,280,7.0,14.0,32,0.00,,,0.00,meteohub,2013-04-27 20:27:00,
2013-04-27 16:32:00,64.9,35.2,30.19,NE,55,5.0,14.0,33,0.00,,,0.00,meteohub,2013-04-27 20:32:00,
2013-04-27 16:37:00,65.1,34.5,30.19,North,10,5.0,14.0,32,0.00,,,0.00,meteohub,2013-04-27 20:37:00,
2013-04-27 16:42:00,65.1,35.4,30.19,SW,235,7.0,14.0,33,0.00,,,0.00,meteohub,2013-04-27 20:42:00,
2013-04-27 16:47:00,65.1,35.4,30.19,WSW,258,5.0,13.0,33,0.00,,,0.00,meteohub,2013-04-27 20:47:00,
2013-04-27 16:52:00,64.9,34.3,30.19,WNW,302,2.0,13.0,32,0.00,,,0.00,meteohub,2013-04-27 20:52:00,
2013-04-27 16:57:00,64.6,34.2,30.19,WNW,302,4.0,13.0,32,0.00,,,0.00,meteohub,2013-04-27 20:57:00,
2013-04-27 17:02:00,64.4,34.0,30.19,North,10,4.0,9.0,32,0.00,,,0.00,meteohub,2013-04-27 21:02:00,
2013-04-27 17:07:00,64.4,34.7,30.19,East,100,5.0,11.0,33,0.00,,,0.00,meteohub,2013-04-27 21:07:00,
2013-04-27 17:12:00,64.0,34.3,30.19,WNW,302,9.0,11.0,33,0.00,,,0.00,meteohub,2013-04-27 21:12:00,
2013-04-27 17:17:00,63.9,34.2,30.19,NW,325,4.0,13.0,33,0.00,,,0.00,meteohub,2013-04-27 21:17:00,
2013-04-27 17:22:00,63.9,34.2,30.19,East,100,5.0,13.0,33,0.00,,,0.00,meteohub,2013-04-27 21:22:00,
2013-04-27 17:27:00,63.9,34.2,30.19,NNW,348,3.0,13.0,33,0.00,,,0.00,meteohub,2013-04-27 21:27:00,
2013-04-27 17:32:00,63.9,34.2,30.19,West,280,7.0,9.0,33,0.00,,,0.00,meteohub,2013-04-27 21:32:00,
2013-04-27 17:37:00,63.9,34.2,30.19,NNW,348,5.0,9.0,33,0.00,,,0.00,meteohub,2013-04-27 21:37:00,
2013-04-27 17:42:00,63.7,34.2,30.19,NE,55,5.0,11.0,33,0.00,,,0.00,meteohub,2013-04-27 21:42:00,
2013-04-27 17:47:00,63.5,34.0,30.19,South,190,4.0,11.0,33,0.00,,,0.00,meteohub,2013-04-27 21:47:00,
2013-04-27 17:52:00,63.5,34.7,30.19,NW,325,4.0,11.0,34,0.00,,,0.00,meteohub,2013-04-27 21:52:00,
2013-04-27 17:57:00,63.3,33.8,30.16,North,10,6.0,12.0,33,0.00,,,0.00,meteohub,2013-04-27 21:57:00,
2013-04-27 18:02:00,63.3,34.5,30.16,NNW,348,4.0,12.0,34,0.00,,,0.00,meteohub,2013-04-27 22:02:00,
2013-04-27 18:07:00,63.0,34.2,30.16,WSW,258,5.0,8.0,34,0.00,,,0.00,meteohub,2013-04-27 22:07:00,
2013-04-27 18:12:00,63.0,34.2,30.19,WSW,258,4.0,10.0,34,0.00,,,0.00,meteohub,2013-04-27 22:12:00,
2013-04-27 18:17:00,62.8,34.0,30.19,SW,235,12.0,12.0,34,0.00,,,0.00,meteohub,2013-04-27 22:17:00,
2013-04-27 18:22:00,62.6,33.8,30.19,North,10,9.0,15.0,34,0.00,,,0.00,meteohub,2013-04-27 22:22:00,
2013-04-27 18:27:00,62.2,33.6,30.19,SW,235,10.0,15.0,34,0.00,,,0.00,meteohub,2013-04-27 22:27:00,
2013-04-27 18:32:00,62.4,34.5,30.19,West,280,5.0,17.0,35,0.00,,,0.00,meteohub,2013-04-27 22:32:00,
2013-04-27 18:37:00,62.1,34.2,30.19,SSW,212,5.0,17.0,35,0.00,,,0.00,meteohub,2013-04-27 22:37:00,
2013-04-27 18:42:00,61.9,34.0,30.19,NNW,348,7.0,17.0,35,0.00,,,0.00,meteohub,2013-04-27 22:42:00,
2013-04-27 18:47:00,61.7,33.8,30.19,East,100,5.0,16.0,35,0.00,,,0.00,meteohub,2013-04-27 22:47:00,
2013-04-27 18:52:00,61.5,33.6,30.19,NNW,348,6.0,19.0,35,0.00,,,0.00,meteohub,2013-04-27 22:52:00,
2013-04-27 18:57:00,61.5,33.6,30.19,SSW,212,4.0,19.0,35,0.00,,,0.00,meteohub,2013-04-27 22:57:00,
2013-04-27 19:02:00,61.3,33.4,30.19,SSW,212,4.0,20.0,35,0.00,,,0.00,meteohub,2013-04-27 23:02:00,
2013-04-27 19:07:00,61.2,33.3,30.19,WSW,258,12.0,20.0,35,0.00,,,0.00,meteohub,2013-04-27 23:07:00,
2013-04-27 19:12:00,61.0,33.8,30.19,SW,235,10.0,20.0,36,0.00,,,0.00,meteohub,2013-04-27 23:12:00,
2013-04-27 19:17:00,60.8,33.8,30.19,West,280,6.0,16.0,36,0.00,,,0.00,meteohub,2013-04-27 23:17:00,
2013-04-27 19:22:00,60.6,33.6,30.19,ENE,78,3.0,17.0,36,0.00,,,0.00,meteohub,2013-04-27 23:22:00,
2013-04-27 19:27:00,60.6,34.2,30.19,WNW,302,5.0,17.0,37,0.00,,,0.00,meteohub,2013-04-27 23:27:00,
2013-04-27 19:32:00,60.3,34.0,30.19,SSW,212,10.0,17.0,37,0.00,,,0.00,meteohub,2013-04-27 23:32:00,
2013-04-27 19:37:00,60.1,33.8,30.19,SSE,168,9.0,13.0,37,0.00,,,0.00,meteohub,2013-04-27 23:37:00,
2013-04-27 19:42:00,59.9,33.6,30.19,NE,55,4.0,16.0,37,0.00,,,0.00,meteohub,2013-04-27 23:42:00,
2013-04-27 19:47:00,59.9,34.3,30.19,NW,325,8.0,16.0,38,0.00,,,0.00,meteohub,2013-04-27 23:47:00,
2013-04-27 19:52:00,59.7,34.2,30.19,WSW,258,3.0,16.0,38,0.00,,,0.00,meteohub,2013-04-27 23:52:00,
2013-04-27 19:57:00,59.7,34.2,30.19,NNW,348,3.0,8.0,38,0.00,,,0.00,meteohub,2013-04-27 23:57:00,
2013-04-27 20:02:00,59.4,34.5,30.19,WNW,302,9.0,11.0,39,0.00,,,0.00,meteohub,2013-04-28 00:02:00,
2013-04-27 20:07:00,59.2,34.3,30.19,WSW,258,7.0,11.0,39,0.00,,,0.00,meteohub,2013-04-28 00:07:00,
2013-04-27 20:12:00,59.0,34.7,30.19,SSW,212,8.0,14.0,40,0.00,,,0.00,meteohub,2013-04-28 00:12:00,
2013-04-27 20:17:00,59.0,34.7,30.19,WSW,258,10.0,14.0,40,0.00,,,0.00,meteohub,2013-04-28 00:17:00,
2013-04-27 20:22:00,58.8,34.5,30.19,WSW,258,5.0,15.0,40,0.00,,,0.00,meteohub,2013-04-28 00:22:00,
2013-04-27 20:27:00,58.8,35.2,30.19,WSW,258,7.0,15.0,41,0.00,,,0.00,meteohub,2013-04-28 00:27:00,
2013-04-27 20:32:00,58.6,35.1,30.19,WSW,258,6.0,15.0,41,0.00,,,0.00,meteohub,2013-04-28 00:32:00,
2013-04-27 20:37:00,58.5,34.9,30.19,SW,235,3.0,9.0,41,0.00,,,0.00,meteohub,2013-04-28 00:37:00,
2013-04-27 20:42:00,58.5,34.9,30.19,WSW,258,5.0,9.0,41,0.00,,,0.00,meteohub,2013-04-28 00:42:00,
2013-04-27 20:47:00,58.5,35.4,30.19,West,280,2.0,9.0,42,0.00,,,0.00,meteohub,2013-04-28 00:47:00,
2013-04-27 20:52:00,58.5,35.4,30.19,West,280,5.0,8.0,42,0.00,,,0.00,meteohub,2013-04-28 00:52:00,
2013-04-27 20:57:00,58.3,35.2,30.19,WNW,302,0.0,7.0,42,0.00,,,0.00,meteohub,2013-04-28 00:57:00,
2013-04-27 21:02:00,58.1,35.8,30.19,NNW,348,2.0,6.0,43,0.00,,,0.00,meteohub,2013-04-28 01:02:00,
2013-04-27 21:07:00,58.1,35.8,30.19,West,280,3.0,6.0,43,0.00,,,0.00,meteohub,2013-04-28 01:07:00,
2013-04-27 21:12:00,57.9,36.1,30.19,NW,325,0.0,8.0,44,0.00,,,0.00,meteohub,2013-04-28 01:12:00,
2013-04-27 21:17:00,57.7,36.0,30.19,East,100,3.0,12.0,44,0.00,,,0.00,meteohub,2013-04-28 01:17:00,
2013-04-27 21:22:00,57.6,35.8,30.19,NNE,32,7.0,12.0,44,0.00,,,0.00,meteohub,2013-04-28 01:22:00,
2013-04-27 21:27:00,57.6,35.8,30.19,NNE,32,3.0,7.0,44,0.00,,,0.00,meteohub,2013-04-28 01:27:00,
2013-04-27 21:32:00,57.4,36.3,30.19,ENE,78,3.0,9.0,45,0.00,,,0.00,meteohub,2013-04-28 01:32:00,
2013-04-27 21:37:00,57.6,36.5,30.19,NNW,348,7.0,9.0,45,0.00,,,0.00,meteohub,2013-04-28 01:37:00,
2013-04-27 21:42:00,57.4,36.3,30.19,NE,55,5.0,9.0,45,0.00,,,0.00,meteohub,2013-04-28 01:42:00,
2013-04-27 21:47:00,57.2,36.1,30.19,North,10,6.0,7.0,45,0.00,,,0.00,meteohub,2013-04-28 01:47:00,
2013-04-27 21:52:00,57.2,36.1,30.19,NE,55,3.0,7.0,45,0.00,,,0.00,meteohub,2013-04-28 01:52:00,
2013-04-27 21:57:00,57.2,36.1,30.19,NW,325,4.0,6.0,45,0.00,,,0.00,meteohub,2013-04-28 01:57:00,
2013-04-27 22:02:00,57.2,36.1,30.16,NNE,32,4.0,7.0,45,0.00,,,0.00,meteohub,2013-04-28 02:02:00,
2013-04-27 22:07:00,56.8,36.3,30.16,NE,55,0.0,8.0,46,0.00,,,0.00,meteohub,2013-04-28 02:07:00,
2013-04-27 22:12:00,56.8,36.3,30.19,NE,55,0.0,8.0,46,0.00,,,0.00,meteohub,2013-04-28 02:12:00,
2013-04-27 22:17:00,56.7,36.1,30.19,ENE,78,6.0,6.0,46,0.00,,,0.00,meteohub,2013-04-28 02:17:00,
2013-04-27 22:22:00,56.8,36.3,30.19,North,10,5.0,11.0,46,0.00,,,0.00,meteohub,2013-04-28 02:22:00,
2013-04-27 22:27:00,56.8,36.3,30.16,NNE,32,0.0,11.0,46,0.00,,,0.00,meteohub,2013-04-28 02:27:00,
2013-04-27 22:32:00,56.7,36.1,30.16,NNE,32,0.0,11.0,46,0.00,,,0.00,meteohub,2013-04-28 02:32:00,
2013-04-27 22:37:00,56.7,36.1,30.16,SSE,168,3.0,6.0,46,0.00,,,0.00,meteohub,2013-04-28 02:37:00,
2013-04-27 22:42:00,56.7,36.7,30.19,North,10,2.0,5.0,47,0.00,,,0.00,meteohub,2013-04-28 02:42:00,
2013-04-27 22:47:00,56.7,36.7,30.19,ESE,122,3.0,5.0,47,0.00,,,0.00,meteohub,2013-04-28 02:47:00,
2013-04-27 22:52:00,56.7,36.7,30.19,East,100,0.0,5.0,47,0.00,,,0.00,meteohub,2013-04-28 02:52:00,
2013-04-27 22:57:00,56.5,36.5,30.19,SE,145,0.0,5.0,47,0.00,,,0.00,meteohub,2013-04-28 02:57:00,
2013-04-27 23:02:00,56.5,36.5,30.19,South,190,5.0,5.0,47,0.00,,,0.00,meteohub,2013-04-28 03:02:00,
2013-04-27 23:07:00,56.5,36.5,30.19,ESE,122,0.0,5.0,47,0.00,,,0.00,meteohub,2013-04-28 03:07:00,
2013-04-27 23:12:00,56.3,36.3,30.19,East,100,3.0,5.0,47,0.00,,,0.00,meteohub,2013-04-28 03:12:00,
2013-04-27 23:17:00,56.3,36.3,30.19,ESE,122,0.0,5.0,47,0.00,,,0.00,meteohub,2013-04-28 03:17:00,
2013-04-27 23:22:00,55.9,36.0,30.19,NE,55,3.0,5.0,47,0.00,,,0.00,meteohub,2013-04-28 03:22:00,
2013-04-27 23:27:00,55.8,36.3,30.16,East,100,3.0,5.0,48,0.00,,,0.00,meteohub,2013-04-28 03:27:00,
2013-04-27 23:32:00,55.9,36.0,30.16,North,10,2.0,5.0,47,0.00,,,0.00,meteohub,2013-04-28 03:32:00,
2013-04-27 23:37:00,55.9,36.0,30.16,NNE,32,6.0,6.0,47,0.00,,,0.00,meteohub,2013-04-28 03:37:00,
2013-04-27 23:42:00,55.9,36.0,30.16,North,10,4.0,6.0,47,0.00,,,0.00,meteohub,2013-04-28 03:42:00,
2013-04-27 23:47:00,55.9,36.0,30.16,NW,325,3.0,6.0,47,0.00,,,0.00,meteohub,2013-04-28 03:47:00,
2013-04-27 23:52:00,55.9,36.0,30.16,NNW,348,3.0,6.0,47,0.00,,,0.00,meteohub,2013-04-28 03:52:00,
2013-04-27 23:57:00,55.6,35.8,30.16,WNW,302,2.0,6.0,47,0.00,,,0.00,meteohub,2013-04-28 03:57:00,